Location: Pacheco
(37.9835°N, 122.0752°W)
Time: 22:55:45
(UTC+00:00)

Cosmos 1933 Rocket - Visible Passes

Search period start: 17 July 2024 00:00
Search period end: 27 July 2024 00:00
Orbit: 604 x 625 km, 82.5° (Epoch: 17 July)

Date Brightness Start Highest point End Pass type
(mag) Time Alt. Az. Time Alt. Az. Time Alt. Az.
19 Jul 6.4 12:17:36 10° SE 12:20:36 18° E 12:23:37 10° NE visible
23 Jul 6.3 11:44:07 10° SE 11:46:55 17° E 11:49:44 10° NE visible
24 Jul 5.5 11:58:51 10° SSE 12:02:43 30° E 12:06:35 10° NNE visible
25 Jul 4.3 12:14:16 10° S 12:18:35 57° E 12:22:57 10° NNE visible
26 Jul 3.6 12:30:07 10° SSW 12:34:33 76° W 12:39:00 10° N visible
